EW7951 Weather Reports


time (UTC)temp
C
wind
direction
speed
KPH
gust
KPH
rain 1hr
cm
rain 24hr
cm
rain mn
cm
humidity
%
barometer
mb
20260506145104 12 327 4.8 11.3 0.00 0.30 0.23 70 1009.5
20260506144604 12 326 1.6 8.0 0.00 0.30 0.23 70 1009.6
20260506144104 12 339 4.8 9.7 0.00 0.30 0.23 70 1009.6
20260506143603 12 330 4.8 12.9 0.00 0.33 0.23 69 1009.6
20260506143104 12 342 3.2 11.3 0.00 0.33 0.23 68 1009.6
20260506142603 12 340 1.6 4.8 0.00 0.33 0.23 67 1009.5
20260506142104 12 323 3.2 9.7 0.00 0.33 0.23 66 1009.5
20260506141604 12 346 3.2 14.5 0.00 0.33 0.23 67 1009.5
20260506141104 13 350 9.7 19.3 0.00 0.33 0.23 67 1009.5
20260506140103 13 348 6.4 19.3 0.00 0.38 0.23 66 1009.5
20260506135603 13 322 3.2 16.1 0.00 0.41 0.23 66 1009.5
20260506134604 13 310 3.2 8.0 0.00 0.43 0.23 65 1009.6
20260506134104 14 316 1.6 9.7 0.00 0.43 0.23 65 1009.6
20260506133603 13 331 3.2 11.3 0.00 0.43 0.23 67 1009.5
20260506133104 13 305 1.6 8.0 0.00 0.43 0.23 68 1009.5
20260506132604 13 342 3.2 11.3 0.00 0.43 0.23 68 1009.5
20260506132104 13 322 4.8 9.7 0.00 0.43 0.23 67 1009.6
20260506131604 13 315 1.6 9.7 0.00 0.43 0.23 67 1009.5
20260506130603 13 331 4.8 14.5 0.00 0.43 0.23 65 1009.4
20260506130105 14 333 1.6 8.0 0.00 0.43 0.23 62 1009.2
20260506125604 14 324 1.6 8.0 0.00 0.43 0.23 64 1009.2
20260506125104 13 319 4.8 11.3 0.00 0.43 0.23 66 1009.2
20260506124604 13 343 1.6 11.3 0.00 0.43 0.23 67 1009.2
20260506124104 13 352 4.8 16.1 0.00 0.43 0.23 66 1009.2
20260506123604 13 6 8.0 16.1 0.00 0.43 0.23 65 1009.1
20260506123105 14 340 4.8 11.3 0.00 0.43 0.23 63 1009.0
20260506122604 14 355 8.0 19.3 0.00 0.43 0.23 62 1009.0
20260506122105 13 320 1.6 9.7 0.00 0.43 0.23 65 1009.0
20260506121604 13 351 9.7 19.3 0.00 0.43 0.23 65 1009.1
20260506120604 13 2 3.2 9.7 0.00 0.43 0.23 66 1009.0
20260506120104 13 356 6.4 19.3 0.00 0.43 0.23 67 1009.1
20260506115604 13 317 4.8 12.9 0.00 0.43 0.23 65 1009.1
20260506114103 13 348 8.0 19.3 0.00 0.43 0.23 67 1009.1
20260506113104 13 346 9.7 22.5 0.00 0.43 0.23 68 1009.2
20260506112604 13 342 4.8 14.5 0.00 0.43 0.23 69 1009.2
20260506112105 13 343 11.3 22.5 0.00 0.43 0.23 69 1009.1
20260506111605 13 353 8.0 12.9 0.00 0.43 0.23 70 1009.1
20260506110605 13 337 8.0 19.3 0.00 0.43 0.23 69 1009.1
20260506105604 12 347 4.8 19.3 0.00 0.43 0.23 72 1009.0
20260506105103 12 329 4.8 14.5 0.00 0.43 0.23 72 1009.0
20260506104604 12 314 4.8 22.5 0.00 0.43 0.23 73 1009.0
20260506104104 12 352 4.8 14.5 0.00 0.43 0.23 73 1008.9
20260506103604 12 335 3.2 12.9 0.00 0.43 0.23 75 1009.0
20260506103105 12 350 6.4 12.9 0.00 0.43 0.23 74 1009.1
20260506102604 12 342 4.8 19.3 0.00 0.43 0.23 74 1009.0
20260506101604 12 338 8.0 20.9 0.00 0.43 0.23 75 1008.9
20260506101103 12 314 4.8 11.3 0.00 0.43 0.23 77 1008.8
20260506100104 12 339 4.8 19.3 0.00 0.43 0.23 78 1008.7
20260506095604 11 329 6.4 19.3 0.00 0.43 0.23 77 1008.7
20260506095104 11 342 8.0 12.9 0.00 0.43 0.23 79 1008.5
20260506094603 11 356 6.4 11.3 0.00 0.43 0.23 78 1008.6
20260506094104 11 341 11.3 20.9 0.00 0.43 0.23 78 1008.7
20260506093104 11 356 6.4 16.1 0.00 0.43 0.23 79 1008.7
20260506092104 11 338 9.7 24.1 0.00 0.43 0.23 80 1008.8
20260506091104 11 9 4.8 12.9 0.00 0.43 0.23 82 1008.7
20260506090604 11 20 3.2 11.3 0.00 0.43 0.23 82 1008.6
20260506090104 11 1 6.4 16.1 0.00 0.43 0.23 82 1008.6
20260506085604 11 16 4.8 16.1 0.00 0.43 0.23 82 1008.6
20260506085104 11 336 8.0 19.3 0.00 0.43 0.23 81 1008.5
20260506084604 10 358 9.7 12.9 0.00 0.43 0.23 83 1008.5
20260506084104 10 4 8.0 14.5 0.00 0.43 0.23 83 1008.5
20260506083604 10 354 4.8 11.3 0.00 0.43 0.23 84 1008.6
20260506083103 10 41 1.6 11.3 0.00 0.43 0.23 85 1008.5
20260506082603 10 16 6.4 11.3 0.00 0.43 0.23 84 1008.6
20260506082104 10 18 4.8 12.9 0.00 0.43 0.23 84 1008.5
20260506081603 10 19 4.8 12.9 0.00 0.43 0.23 84 1008.6
20260506081104 10 1 3.2 9.7 0.00 0.43 0.23 86 1008.5
20260506080603 10 358 8.0 16.1 0.00 0.43 0.23 85 1008.5
20260506080104 10 355 3.2 14.5 0.00 0.46 0.23 87 1008.4
20260506073105 9 353 12.9 22.5 0.00 0.46 0.23 88 1008.0
20260506072604 9 3 8.0 14.5 0.00 0.46 0.23 89 1007.9
20260506072104 9 353 4.8 12.9 0.00 0.46 0.23 90 1007.8
20260506071604 9 0 8.0 19.3 0.00 0.46 0.23 90 1007.8
20260506071104 9 347 3.2 14.5 0.00 0.46 0.23 90 1007.9
20260506070603 9 7 4.8 12.9 0.00 0.46 0.23 90 1007.8
20260506070103 9 351 4.8 11.3 0.00 0.46 0.23 90 1007.7
20260506062104 9 342 6.4 12.9 0.00 0.46 0.23 90 1007.4
20260506061604 9 342 3.2 14.5 0.00 0.46 0.23 91 1007.3
20260506060604 9 343 4.8 12.9 0.00 0.46 0.23 91 1007.2
20260506060104 9 352 4.8 12.9 0.00 0.46 0.23 91 1007.1
20260506051103 9 353 3.2 16.1 0.00 0.46 0.23 92 1006.6
20260506050104 9 1 8.0 19.3 0.03 0.46 0.23 92 1006.6
20260506045103 9 332 4.8 12.9 0.03 0.46 0.23 92 1006.5
20260506044104 9 357 4.8 11.3 0.03 0.46 0.23 92 1006.3
20260506043605 9 348 4.8 14.5 0.03 0.46 0.23 92 1006.4
20260506043104 9 344 4.8 20.9 0.03 0.46 0.23 93 1006.4
20260506042604 9 346 4.8 12.9 0.03 0.46 0.23 93 1006.4
20260506042104 9 339 4.8 12.9 0.03 0.46 0.23 93 1006.5
20260506041604 10 348 4.8 14.5 0.03 0.46 0.23 92 1006.5
20260506041103 10 344 3.2 9.7 0.03 0.46 0.23 93 1006.3
20260506040604 10 354 4.8 11.3 0.00 0.43 0.20 93 1006.4
20260506040104 10 341 4.8 14.5 0.03 0.43 0.20 93 1006.3
20260506035605 10 348 3.2 14.5 0.03 0.43 0.20 93 1006.3
20260506035104 10 358 6.4 12.9 0.03 0.43 0.20 93 1006.3
20260506034104 10 339 1.6 11.3 0.03 0.43 0.20 93 1006.3
20260506032603 10 352 1.6 8.0 0.05 0.43 0.20 93 1006.3
20260506032105 10 0 1.6 4.8 0.05 0.43 0.20 93 1006.3
20260506031605 10 357 3.2 4.8 0.05 0.43 0.20 93 1006.3
20260506031105 10 356 0.0 4.8 0.05 0.43 0.20 93 1006.3
20260506030605 10 358 0.0 4.8 0.05 0.43 0.20 93 1006.4
20260506030104 10 358 1.6 4.8 0.05 0.43 0.18 93 1006.4
20260506025604 10 0 1.6 9.7 0.05 0.43 0.18 93 1006.4
20260506025104 10 358 4.8 20.9 0.05 0.43 0.18 93 1006.5
20260506024103 10 0 8.0 14.5 0.08 0.43 0.18 93 1006.4
20260506023604 10 352 3.2 12.9 0.08 0.43 0.18 93 1006.5
20260506023104 10 350 6.4 14.5 0.05 0.41 0.15 93 1006.5
20260506022604 10 1 4.8 8.0 0.05 0.41 0.15 93 1006.5
20260506022104 10 353 3.2 11.3 0.05 0.41 0.15 93 1006.5
20260506020604 10 349 4.8 14.5 0.05 0.38 0.15 93 1006.5
20260506015605 10 348 1.6 11.3 0.05 0.36 0.13 93 1006.5
20260506015104 10 9 3.2 9.7 0.05 0.36 0.13 93 1006.4
20260506014604 10 354 3.2 8.0 0.05 0.36 0.13 93 1006.5
20260506014104 10 344 1.6 8.0 0.05 0.33 0.10 93 1006.5
20260506013105 10 357 3.2 8.0 0.05 0.33 0.10 93 1006.3
20260506012605 10 7 3.2 11.3 0.05 0.33 0.10 93 1006.3
20260506012104 10 0 9.7 16.1 0.05 0.33 0.10 93 1006.2
20260506011604 10 355 4.8 19.3 0.05 0.33 0.10 93 1006.4
20260506011104 10 345 6.4 14.5 0.05 0.33 0.10 93 1006.4
20260506010604 10 356 4.8 12.9 0.05 0.33 0.10 93 1006.2
20260506005604 10 349 4.8 11.3 0.03 0.33 0.08 93 1006.3
20260506005104 10 21 3.2 4.8 0.03 0.33 0.08 93 1006.3
20260506004104 11 22 3.2 11.3 0.00 0.30 0.05 92 1006.4
20260506003605 11 18 4.8 16.1 0.03 0.30 0.05 92 1006.3
20260506003104 11 348 4.8 22.5 0.03 0.30 0.05 92 1006.3
20260506002605 11 348 4.8 19.3 0.03 0.30 0.05 92 1006.4
20260506002104 11 351 3.2 12.9 0.05 0.30 0.05 92 1006.3
20260506001605 11 356 4.8 11.3 0.05 0.30 0.05 92 1006.4
20260506001104 11 356 3.2 9.7 0.05 0.30 0.05 92 1006.4
20260506000605 11 6 6.4 12.9 0.05 0.30 0.05 92 1006.4
20260506000104 11 349 4.8 12.9 0.05 0.30 0.05 92 1006.3
20260505235605 11 341 3.2 11.3 0.05 0.30 0.05 92 1006.4
20260505235104 11 351 3.2 8.0 0.05 0.30 0.05 92 1006.4
20260505233604 11 348 3.2 8.0 0.05 0.28 0.05 92 1006.5
20260505233106 11 348 1.6 4.8 0.05 0.28 0.05 93 1006.4
20260505232604 11 350 0.0 4.8 0.05 0.28 0.05 92 1006.5
20260505231604 11 348 0.0 4.8 0.03 0.25 0.03 92 1006.5
20260505231103 11 348 3.2 9.7 0.03 0.25 0.03 92 1006.5
20260505230604 11 350 0.0 4.8 0.03 0.25 0.03 92 1006.5
20260505230104 11 350 3.2 8.0 0.03 0.25 0.03 92 1006.6
20260505225104 11 348 3.2 9.7 0.03 0.25 0.03 92 1006.6
20260505224603 11 352 3.2 9.7 0.03 0.25 0.03 92 1006.6
20260505224104 11 352 1.6 8.0 0.03 0.25 0.03 92 1006.6
20260505223604 11 0 3.2 9.7 0.00 0.23 0.00 92 1006.5
20260505223105 11 7 1.6 9.7 0.00 0.23 0.00 92 1006.5
20260505222604 11 338 0.0 4.8 0.00 0.23 0.00 92 1006.3
20260505222104 11 340 6.4 12.9 0.00 0.23 0.00 92 1006.3
20260505221604 11 350 1.6 11.3 0.00 0.23 0.00 92 1006.4
20260505221105 11 347 0.0 8.0 0.00 0.23 0.00 92 1006.4
20260505220605 11 350 1.6 4.8 0.00 0.23 0.00 92 1006.3
20260505220105 11 351 1.6 9.7 0.00 0.23 0.00 92 1006.3
20260505215604 11 356 4.8 9.7 0.00 0.23 0.23 92 1006.4
20260505215104 11 357 1.6 12.9 0.00 0.23 0.23 92 1006.4
20260505214104 11 345 6.4 9.7 0.00 0.23 0.23 92 1006.4
20260505213603 11 348 4.8 9.7 0.00 0.23 0.23 92 1006.5
20260505213104 11 346 6.4 9.7 0.00 0.23 0.23 92 1006.5
20260505212603 11 345 1.6 9.7 0.00 0.23 0.23 92 1006.5
20260505212104 11 348 3.2 8.0 0.00 0.23 0.23 92 1006.6
20260505211604 11 349 4.8 9.7 0.00 0.23 0.23 92 1006.6
20260505211103 11 352 1.6 9.7 0.00 0.23 0.23 92 1006.6
20260505210603 11 353 1.6 8.0 0.00 0.23 0.23 92 1006.6
20260505210103 11 348 3.2 8.0 0.00 0.23 0.23 92 1006.6
20260505205604 11 345 1.6 11.3 0.00 0.23 0.23 92 1006.6
20260505205103 11 346 3.2 9.7 0.00 0.23 0.23 92 1006.6
20260505204104 11 354 4.8 9.7 0.03 0.23 0.23 92 1006.6
20260505203604 11 353 4.8 9.7 0.03 0.23 0.23 92 1006.6
20260505203103 11 339 3.2 12.9 0.03 0.23 0.23 92 1006.6
20260505202605 11 352 1.6 8.0 0.03 0.23 0.23 92 1006.6
20260505202103 11 351 1.6 11.3 0.03 0.23 0.23 92 1006.6
20260505201603 11 350 4.8 9.7 0.03 0.23 0.23 92 1006.5
20260505201104 11 356 3.2 11.3 0.03 0.23 0.23 92 1006.5
20260505200603 11 2 1.6 4.8 0.03 0.23 0.23 92 1006.5
20260505200104 11 2 1.6 4.8 0.03 0.23 0.23 92 1006.4
20260505195604 11 6 1.6 8.0 0.03 0.23 0.23 92 1006.4
20260505194603 12 354 4.8 9.7 0.00 0.23 0.23 92 1006.4
20260505194103 12 355 3.2 8.0 0.00 0.23 0.23 92 1006.3
20260505193604 12 0 1.6 8.0 0.00 0.23 0.23 92 1006.4
20260505193103 12 1 4.8 8.0 0.00 0.23 0.23 92 1006.3
20260505192604 12 6 0.0 4.8 0.00 0.23 0.23 92 1006.1
20260505192103 12 12 3.2 9.7 0.00 0.23 0.23 92 1006.0
20260505191603 12 23 4.8 14.5 0.00 0.23 0.23 92 1006.0
20260505191104 12 5 4.8 11.3 0.00 0.23 0.23 92 1006.0
20260505190603 12 3 6.4 9.7 0.00 0.23 0.23 92 1006.0
20260505185603 12 0 3.2 11.3 0.00 0.23 0.23 92 1006.0
20260505185103 12 3 3.2 11.3 0.00 0.23 0.23 92 1006.0
20260505184603 12 12 1.6 8.0 0.03 0.23 0.23 92 1005.9
20260505184103 12 21 1.6 11.3 0.03 0.23 0.23 92 1005.9
20260505183604 12 3 3.2 11.3 0.03 0.23 0.23 91 1005.8
20260505183103 12 12 4.8 12.9 0.03 0.23 0.23 91 1005.9
20260505182604 12 18 1.6 8.0 0.03 0.23 0.23 91 1005.8
20260505182104 12 12 3.2 9.7 0.03 0.23 0.23 91 1005.9
20260505181604 12 8 4.8 11.3 0.03 0.23 0.23 91 1005.9
20260505181103 12 6 4.8 12.9 0.03 0.23 0.23 91 1005.8
20260505180603 12 14 3.2 9.7 0.03 0.23 0.23 91 1005.9
20260505180103 12 15 6.4 9.7 0.03 0.23 0.23 91 1005.8
20260505175104 12 7 3.2 9.7 0.03 0.23 0.23 91 1005.9
20260505174603 12 17 3.2 14.5 0.00 0.23 0.20 91 1005.9
20260505174103 12 20 4.8 11.3 0.00 0.23 0.20 91 1005.8
20260505173603 12 14 4.8 11.3 0.00 0.23 0.20 91 1005.9
20260505172604 12 1 4.8 14.5 0.00 0.23 0.20 91 1005.9
20260505172103 12 22 3.2 14.5 0.00 0.23 0.20 91 1005.9
20260505171604 12 13 3.2 11.3 0.00 0.23 0.20 91 1005.9
20260505171104 12 8 3.2 9.7 0.00 0.23 0.20 91 1006.0
20260505170603 12 355 8.0 14.5 0.00 0.23 0.20 91 1006.0
20260505170103 12 12 0.0 11.3 0.00 0.23 0.20 92 1006.0
20260505165604 12 10 8.0 16.1 0.00 0.23 0.20 91 1006.0
20260505164603 12 2 3.2 11.3 0.00 0.23 0.20 92 1006.0
20260505163605 12 17 1.6 9.7 0.00 0.23 0.20 92 1006.0
20260505163104 12 9 8.0 16.1 0.00 0.23 0.20 92 1006.1
20260505162604 12 17 0.0 8.0 0.00 0.23 0.20 92 1006.1
20260505161104 12 2 6.4 12.9 0.03 0.23 0.20 91 1006.0
20260505160604 12 6 4.8 12.9 0.05 0.23 0.20 92 1006.0
20260505160103 12 346 6.4 14.5 0.05 0.23 0.20 92 1006.0
20260505153105 12 348 8.0 12.9 0.05 0.23 0.20 91 1005.9
20260505152604 12 357 4.8 19.3 0.05 0.23 0.20 92 1006.0
20260505152104 12 3 6.4 14.5 0.05 0.20 0.18 92 1006.1
20260505151603 12 2 8.0 19.3 0.05 0.20 0.18 92 1006.2
20260505151104 12 354 4.8 12.9 0.05 0.20 0.18 91 1006.1
20260505150604 12 31 3.2 11.3 0.05 0.18 0.15 92 1006.1
20260505150104 12 25 4.8 14.5 0.08 0.18 0.15 91 1006.1